Regional Weather Roundup
Issued by NWS

Home | Current Version | Previous Version | Graphics & Text | Print | Product List | Glossary Off
Versions: 1 2 3 4 5 6 7 8 9 10 11 12 13 14 15 16 17 18 19 20 21 22 23 24 25 26 27 28 29 30 31 32 33 34 35 36 37 38 39 40 41 42 43 44 45 46 47 48 49 50

000
ASUS43 KMKX 261221
RWRWI

WISCONSIN REGIONAL WEATHER ROUNDUP
NATIONAL WEATHER SERVICE MILWAUKEE/SULLIVAN WI
700 AM CDT THU MAY 26 2016

NOTE: "FAIR" INDICATES FEW OR NO CLOUDS BELOW 12,000 FEET WITH NO
SIGNIFICANT WEATHER AND/OR OBSTRUCTIONS TO VISIBILITY.

WIZ001-002-006>008-014>016-023>028-261300-
NORTHWEST WISCONSIN

CITY           SKY/WX    TMP DP  RH WIND       PRES   REMARKS
SUPERIOR ARPT  FOG       43  43 100 NE5       29.83S VSB 1/4
6HR MIN TEMP:  41; 6HR MAX TEMP:  44;

ASHLAND        FOG       50  50 100 SE3       29.83R VSB 1/4
6HR MIN TEMP:  48; 6HR MAX TEMP:  50;

HAYWARD        CLOUDY    58  56  93 CALM      29.80F
6HR MIN TEMP:  51; 6HR MAX TEMP:  58;

SIREN          FOG       57  57  98 CALM      29.80S VSB 1/4
6HR MIN TEMP:  57; 6HR MAX TEMP:  58;

CUMBERLAND     CLOUDY    57  55  94 CALM      29.78F FOG
RICE LAKE      CLOUDY    61  59  96 SE5       29.81S FOG
6HR MIN TEMP:  58; 6HR MAX TEMP:  61;

CHETEK         CLOUDY    61  61 100 NE3       29.78F FOG
6HR MIN TEMP:  57; 6HR MAX TEMP:  61; 6HR PCP:  0.01;

LADYSMITH      FOG       62  61  97 CALM      29.82F VSB 1/4
6HR MIN TEMP:  59; 6HR MAX TEMP:  62;

EAU CLAIRE     LGT RAIN  61  59  93 W8        29.76F
6HR MIN TEMP:  56; 6HR MAX TEMP:  63; 6HR PCP:  0.14;

MENOMONIE      DRIZZLE   61  60  99 E12       29.76F
6HR MIN TEMP:  59; 6HR MAX TEMP:  64; 6HR PCP:  0.01;

NEW RICHMOND   CLOUDY    61  58  89 N5        29.78F
6HR MIN TEMP:  60; 6HR MAX TEMP:  64; 6HR PCP:  0.01;

OSCEOLA        CLOUDY    63  63 100 CALM      29.81F
6HR MIN TEMP:  62; 6HR MAX TEMP:  65; 6HR PCP:  0.03;

$$

WIZ003>005-009-010-017-018-261300-
NORTH CENTRAL WISCONSIN

CITY           SKY/WX    TMP DP  RH WIND       PRES   REMARKS
MANITOWISH WTR NOT AVBL
ARBOR VITAE    FOG       62  60  96 S3        29.83S VSB 3/4
6HR MIN TEMP:  60; 6HR MAX TEMP:  62;

WOODRUFF       FOG       62  60  96 S3        29.83S VSB 3/4
6HR MIN TEMP:  60; 6HR MAX TEMP:  62;

RHINELANDER    FOG       62  61  96 CALM      29.84F VSB 3/4
6HR MIN TEMP:  61; 6HR MAX TEMP:  62;

EAGLE RIVER      N/A     60  60  98 CALM      29.84S
LAND O LAKES   CLOUDY    60  60  98 W5        29.85S
6HR MIN TEMP:  59; 6HR MAX TEMP:  60; 6HR PCP:  0.03;

PHILLIPS       FOG       60  60 100 CALM      29.80F VSB 1/4
6HR MIN TEMP:  58; 6HR MAX TEMP:  61;

TOMAHAWK       FOG       61  60  97 CALM      29.83F VSB 1/2
6HR MIN TEMP:  60; 6HR MAX TEMP:  61;

MEDFORD        FOG       60  60 100 CALM      29.83R VSB<1/4
6HR MIN TEMP:  60; 6HR MAX TEMP:  62;

MERRILL        FOG       62  62 100 SE3       29.83F VSB 1/4
$$

WIZ029-030-035-036-043>047-261300-
CENTRAL WISCONSIN

CITY           SKY/WX    TMP DP  RH WIND       PRES   REMARKS
WAUSAU         FOG       63  50  63 E5        29.82R VSB 1/4
6HR MIN TEMP:  63; 6HR MAX TEMP:  64;

MOSINEE        FOG       61  61 100 SE3       29.85S VSB 1/8
MARSHFIELD     CLOUDY    61  59  93 W6        29.85R FOG
6HR MIN TEMP:  59; 6HR MAX TEMP:  63;

STEVENS POINT  FOG       59  59 100 E3        29.84S VSB<1/4
6HR MIN TEMP:  57; 6HR MAX TEMP:  60;

WAUPACA        FOG       62  62  97 CALM      29.84S VSB 1/4
6HR MIN TEMP:  59; 6HR MAX TEMP:  62;

WAUTOMA        FOG       57  57 100 NW3       29.87  VSB 1
6HR MIN TEMP:  57; 6HR MAX TEMP:  59;

WISC RAPIDS    CLOUDY    60  58  92 S3        29.85R FOG
6HR MIN TEMP:  58; 6HR MAX TEMP:  62;

CAMP DOUGLAS   TSTM      61  61 100 W3        29.89R
                                      6HR PCP:  0.20;

$$

WIZ011>013-019>022-031-037>040-048>050-261300-
NORTHEAST WISCONSIN

CITY           SKY/WX    TMP DP  RH WIND       PRES   REMARKS
ANTIGO         FOG       61  61 100 CALM      29.85F VSB 1/4
6HR MIN TEMP:  59; 6HR MAX TEMP:  62; 6HR PCP:  0.01;

SHAWANO        FOG       64  63  96 CALM      29.85S VSB 1/4
6HR MIN TEMP:  61; 6HR MAX TEMP:  64;

OCONTO         CLOUDY    61  61 100 CALM      29.85S VSB 1/4
                                      6HR PCP:  0.01;

STURGEON BAY   NOT AVBL
GREEN BAY      FOG       63  63 100 S3        29.85R VSB<1/4
6HR MIN TEMP:  59; 6HR MAX TEMP:  63;

MANITOWOC      FOG       54  53  97 E5        29.87R VSB<1/4
6HR MIN TEMP:  53; 6HR MAX TEMP:  59; 6HR PCP:  0.01;

APPLETON       FOG       63  63 100 CALM      29.85R VSB 1
CLINTONVILLE   FOG       63  61  94 SE3       29.85S VSB<1/4
OSHKOSH        CLOUDY    65  63  93 S10       29.85R FOG
6HR MIN TEMP:  61; 6HR MAX TEMP:  65;

$$

WIZ032>034-041-042-053>061-261300-
SOUTHWEST WISCONSIN

CITY           SKY/WX    TMP DP  RH WIND       PRES   REMARKS
LA CROSSE      RAIN      61  59  93 SE7       29.85F
6HR MIN TEMP:  61; 6HR MAX TEMP:  67; 6HR PCP:  0.24;

SPARTA         HVY RAIN  59  59 100 SW3       29.89F
6HR MIN TEMP:  53; 6HR MAX TEMP:  60; 6HR PCP:  0.86;

VIROQUA        CLOUDY    60  60 100 NW8       29.88F
6HR MIN TEMP:  60; 6HR MAX TEMP:  68; 6HR PCP:  0.55;

BOSCOBEL       LGT RAIN  64  60  87 NW16G29   29.83F
6HR MIN TEMP:  59; 6HR MAX TEMP:  65; 6HR PCP:  0.19;

PRAIRIE DU CHI DRIZZLE   60  59  95 NW8       29.81F
6HR MIN TEMP:  60; 6HR MAX TEMP:  68; 6HR PCP:  0.24;

PLATTEVILLE    CLOUDY    64  60  88 W12G24    29.86F
6HR MIN TEMP:  64; 6HR MAX TEMP:  70;

$$

WIZ056-057-062-063-064-067-068-261300-
SOUTH CENTRAL WISCONSIN

CITY           SKY/WX    TMP DP  RH WIND       PRES   REMARKS
REEDSBURG      RAIN      64  63  97 SW14G25   29.88R
6HR MIN TEMP:  59; 6HR MAX TEMP:  64; 6HR PCP:  0.31;

BARABOO/DELLS  TSTM      64  61  89 W14G21    29.89R VSB 3/4
6HR MIN TEMP:  60; 6HR MAX TEMP:  65; 6HR PCP:  0.44;

LONE ROCK      LGT RAIN  66  61  84 NW21G28   29.86F
6HR MIN TEMP:  59; 6HR MAX TEMP:  69; 6HR PCP:  0.01;

MINERAL POINT  LGT RAIN  66  61  82 W14G30    29.87S
MADISON        TSTM      67  63  87 VRB5G18   29.88R
6HR MIN TEMP:  65; 6HR MAX TEMP:  67;

MIDDLETON      CLOUDY    70  62  77 SW22      29.88R
6HR MIN TEMP:  64; 6HR MAX TEMP:  70;

WATERTOWN      PTSUNNY   66  66 100 S6        29.86F FOG
6HR MIN TEMP:  61; 6HR MAX TEMP:  66;

MONROE         RAIN      66  63  88 W32G48    29.91R
JANESVILLE     PTSUNNY   68  66  94 CALM      29.88F
$$

WIZ051-052-058>065-066-070>072-261300-
SOUTHEAST WISCONSIN

CITY           SKY/WX    TMP DP  RH WIND       PRES   REMARKS
MILWAUKEE      PTSUNNY   66  64  93 S9        29.89R FOG
6HR MIN TEMP:  61; 6HR MAX TEMP:  66;

WAUKESHA       SUNNY     64  63  94 S10       29.89S FOG
MILWAUKEE/TIMM SUNNY     64  63  94 S6        29.88F FOG
RACINE         CLOUDY    62  60  93 S5        29.92R FOG
6HR MIN TEMP:  58; 6HR MAX TEMP:  65;

BURLINGTON     PTSUNNY   65  65  99 S6        29.88F FOG
6HR MIN TEMP:  60; 6HR MAX TEMP:  65;

KENOSHA        PTSUNNY   68  65  90 SW9       29.90R FOG
6HR MIN TEMP:  64; 6HR MAX TEMP:  68;

FOND DU LAC    CLOUDY    65  64  97 SW5       29.86R
6HR MIN TEMP:  60; 6HR MAX TEMP:  65;

SHEBOYGAN      FOG       64  63  96 S7        29.87R VSB 3/4
6HR MIN TEMP:  55; 6HR MAX TEMP:  63;

WEST BEND      CLOUDY    63  63 100 SW5       29.88R FOG
JUNEAU         MOSUNNY   64  64  99 S7        29.88S FOG
6HR MIN TEMP:  59; 6HR MAX TEMP:  64; 6HR PCP:  0.01;

$$

LSZ147-162-261300-
LAKE SUPERIOR

STATION/POSITION TIME  TEMP    WIND        PRES    WAVE
                       AIR SEA DIR/SP/G            HT/PER
                 (UTC) (F)     (DEG/KT/KT) (MB)    (FT/S)
W MID LAKE BUOY  1150   41 38   30/  6/  8 1010.7R   1/ 4
DEVILS ISLAND    1200   42      60/  8/  9 1010.5F
SAXON HARBOR     1100   49      CALM  /  1 1009.5
$$

LMZ867-665-643>646-261300-
LAKE MICHIGAN

STATION/POSITION TIME  TEMP    WIND        PRES    WAVE
                       AIR SEA DIR/SP/G            HT/PER
                 (UTC) (F)     (DEG/KT/KT) (MB)    (FT/S)
CHAMBERS ISLAND  1100   56     150/  4/  6 1010.8
N MID LAKE BUOY  1150   50 45  210/ 14/ 16 1011.0R   1
NORTHPORT PIER   1100   54     160/  2/  5 1010.8S
SISTER BAY       1104 C1F1C2F2C3F3C4F4C5F5C6F6C7F7C8M1C9M2Ca!



USA.gov is the U.S. government's official web portal to all federal, state and local government web resources and services.